Home > Weather > Pictou County > Past weeks

Flag for Canada Weather for the Past 2 Weeks in Pictou County, Nova Scotia, Canada

Now
18 °F

Cold.


Feels Like: 3 °F
Forecast: 8 / 20 °F
Wind: 15 mph from North

Location: Caribou Point

Current Time: Feb 13, 2016 at 4:29:35 PM

Latest Report: Feb 13, 2016 at 4:00 PM


Visibility: N/A

Pressure: 29.65 "Hg

Humidity: 93%

Dew point: 16 °F

Location of Pictou CountyLocation

Historic Weather in Pictou County — Graph

°F

Pictou County Temperature Yesterday

Maximum temperature yesterday: 25 °F (at 12:00 AM)
Minimum temperature yesterday: 9 °F (at 11:00 PM)
Average temperature yesterday: 17 °F

High & Low Weather Summary for the Past Weeks

 TemperatureHumidityPressure
High51 °F (Feb 1, 3:00 PM)100% (Jan 29, 3:00 PM)30.53 "Hg (Jan 29, 3:00 PM)
Low9 °F (Feb 13, 12:00 AM)56% (Feb 7, 7:00 PM)29.06 "Hg (Jan 29, 6:00 PM)
Average28 °F86%29.84 "Hg
* Reported Jan 29 3:00 PM — Feb 13 3:00 PM, Pictou County, Weather by CustomWeather, © 2016

Note: Actual official high and low records may vary slightly from our data, if they occured in-between our weather recording intervals... More about our weather records

Advertising

Pictou County Weather History for the Previous 24 Hours

 ConditionsComfort  
Time TempWeatherWind HumidityBarometerVisibility
3:00 PM
Sat, Feb 13
18 °FCold.13 mph91%29.64 "HgN/A
2:00 PM19 °FCold.18 mph71%29.64 "HgN/A
1:00 PM19 °FCold.16 mph70%29.69 "HgN/A
12:00 PM18 °FCold.17 mph70%29.74 "HgN/A
11:00 AM16 °FCold.13 mph77%29.80 "HgN/A
10:00 AM14 °FCold.10 mph77%29.85 "HgN/A
9:00 AM13 °FCold.6 mph66%29.89 "HgN/A
8:00 AM13 °FCold.8 mph67%29.90 "HgN/A
7:00 AM13 °FCold.8 mph69%29.93 "HgN/A
6:00 AM12 °FCold.3 mph79%29.93 "HgN/A
5:00 AM9 °FFrigid.3 mph78%29.96 "HgN/A
4:00 AM9 °FFrigid.3 mph75%29.99 "HgN/A
3:00 AM9 °FFrigid.3 mph73%30.01 "HgN/A
2:00 AM9 °FFrigid.5 mph80%30.02 "HgN/A
1:00 AM9 °FFrigid.5 mph80%30.01 "HgN/A
12:00 AM9 °FFrigid.6 mph72%30.01 "HgN/A
11:00 PM
Fri, Feb 12
9 °FFrigid.7 mph73%30.02 "HgN/A
10:00 PM9 °FFrigid.7 mph74%30.02 "HgN/A
9:00 PM11 °FCold.9 mph72%30.01 "HgN/A
8:00 PM13 °FCold.7 mph66%30.00 "HgN/A
7:00 PM13 °FCold.7 mph71%29.98 "HgN/A
6:00 PM14 °FCold.14 mph74%29.96 "HgN/A
5:00 PM14 °FCold.16 mph73%29.92 "HgN/A
4:00 PM16 °FCold.20 mph70%29.88 "HgN/A
Weather by CustomWeather, © 2016

See weather overviewHow to use our weather pages